Time,TemperatureF,DewpointF,PressureIn,WindDirection,WindDirectionDegrees,WindSpeedMPH,WindSpeedGustMPH,Humidity,HourlyPrecipIn,Conditions,Clouds,dailyrainin,SoftwareType,DateUTC
2013-05-03 00:00:00,52.3,50.0,30.03,WNW,290,2.0,9.0,92,0.00,,OVC003,0.00,VWS V14.00,2013-05-03 05:00:00,
2013-05-03 00:02:00,52.0,50.0,30.03,WNW,293,2.0,5.0,93,0.03,,OVC010,0.03,VWS V14.00,2013-05-03 05:02:00,
2013-05-03 00:07:00,51.8,49.8,30.03,NW,322,1.0,5.0,93,0.03,,OVC010,0.03,VWS V14.00,2013-05-03 05:07:00,
2013-05-03 00:12:00,51.7,49.8,30.03,NNW,336,0.0,6.0,93,0.03,,OVC010,0.03,VWS V14.00,2013-05-03 05:12:00,
2013-05-03 00:17:00,51.7,49.8,30.03,WNW,287,3.0,6.0,93,0.04,,OVC010,0.04,VWS V14.00,2013-05-03 05:17:00,
2013-05-03 00:22:00,51.7,50.0,30.03,WNW,284,4.0,6.0,94,0.05,,-RA,0.05,VWS V14.00,2013-05-03 05:22:00,
2013-05-03 00:27:00,51.4,49.5,30.03,WNW,292,0.0,7.0,93,0.06,,-RA,0.06,VWS V14.00,2013-05-03 05:27:00,
2013-05-03 00:30:00,51.7,49.8,30.03,NW,304,3.0,6.0,93,0.04,,OVC003,0.04,VWS V14.00,2013-05-03 05:30:00,
2013-05-03 00:32:00,51.3,49.3,30.05,WSW,253,3.0,7.0,93,0.08,,-RA,0.08,VWS V14.00,2013-05-03 05:32:00,
2013-05-03 00:37:00,51.1,49.2,30.03,WNW,283,2.0,7.0,93,0.11,,-RA,0.11,VWS V14.00,2013-05-03 05:37:00,
2013-05-03 00:42:00,50.9,49.0,30.03,NW,309,1.0,7.0,93,0.12,, +RA,0.12,VWS V14.00,2013-05-03 05:42:00,
2013-05-03 00:47:00,50.7,48.8,30.02,NNW,346,3.0,7.0,93,0.13,, +RA,0.13,VWS V14.00,2013-05-03 05:47:00,
2013-05-03 00:52:00,50.6,48.9,30.02,NNE,22,5.0,5.0,94,0.13,, +RA,0.13,VWS V14.00,2013-05-03 05:52:00,
2013-05-03 00:57:00,50.5,48.8,30.01,NNE,21,2.0,6.0,94,0.14,, +RA,0.14,VWS V14.00,2013-05-03 05:57:00,
2013-05-03 01:00:00,50.6,48.9,30.02,NNE,26,4.0,7.0,94,0.13,,OVC003,0.13,VWS V14.00,2013-05-03 06:00:00,
2013-05-03 01:02:00,50.3,48.6,30.01,North,355,3.0,7.0,94,0.14,,-RA,0.14,VWS V14.00,2013-05-03 06:02:00,
2013-05-03 01:07:00,50.2,48.5,30.01,NE,37,2.0,7.0,94,0.14,,-RA,0.14,VWS V14.00,2013-05-03 06:07:00,
2013-05-03 01:12:00,50.1,48.4,30.01,NNE,20,1.0,7.0,94,0.15,,-RA,0.15,VWS V14.00,2013-05-03 06:12:00,
2013-05-03 01:17:00,50.1,48.4,30.00,North,350,0.0,7.0,94,0.15,,-RA,0.15,VWS V14.00,2013-05-03 06:17:00,
2013-05-03 01:22:00,50.0,48.3,30.00,North,350,2.0,3.0,94,0.11,,-RA,0.15,VWS V14.00,2013-05-03 06:22:00,
2013-05-03 01:27:00,50.0,48.3,30.00,North,350,2.0,3.0,94,0.11,,-RA,0.15,VWS V14.00,2013-05-03 06:27:00,
2013-05-03 01:30:00,50.0,48.3,30.00,North,350,0.0,7.0,94,0.15,,OVC003,0.15,VWS V14.00,2013-05-03 06:30:00,
2013-05-03 01:32:00,50.0,48.3,29.99,North,350,3.0,3.0,94,0.11,,-RA,0.15,VWS V14.00,2013-05-03 06:32:00,
2013-05-03 01:37:00,50.0,48.3,29.99,North,355,0.0,4.0,94,0.11,,-RA,0.15,VWS V14.00,2013-05-03 06:37:00,
2013-05-03 01:42:00,50.0,48.6,29.98,North,355,3.0,4.0,95,0.11,,,0.15,VWS V14.00,2013-05-03 06:42:00,
2013-05-03 01:47:00,50.0,48.6,29.98,NE,48,0.0,6.0,95,0.11,,,0.15,VWS V14.00,2013-05-03 06:47:00,
2013-05-03 01:52:00,49.9,48.5,29.98,NNW,348,1.0,2.0,95,0.02,,,0.15,VWS V14.00,2013-05-03 06:52:00,
2013-05-03 01:57:00,49.9,48.5,29.98,NW,319,3.0,5.0,95,0.02,,,0.15,VWS V14.00,2013-05-03 06:57:00,
2013-05-03 02:00:00,50.0,48.6,29.98,NNW,348,0.0,6.0,95,0.11,,OVC003,0.15,VWS V14.00,2013-05-03 07:00:00,
2013-05-03 02:02:00,49.9,48.2,29.98,NW,319,3.0,5.0,94,0.02,,,0.15,VWS V14.00,2013-05-03 07:02:00,
2013-05-03 02:07:00,49.9,48.5,29.97,North,355,1.0,5.0,95,0.02,,,0.15,VWS V14.00,2013-05-03 07:07:00,
2013-05-03 02:12:00,49.9,48.5,29.97,North,355,2.0,5.0,95,0.02,,,0.15,VWS V14.00,2013-05-03 07:12:00,
2013-05-03 02:17:00,49.9,48.5,29.97,North,355,1.0,5.0,95,0.02,,,0.15,VWS V14.00,2013-05-03 07:17:00,
2013-05-03 02:22:00,49.9,48.5,29.97,North,355,0.0,2.0,95,0.00,,OVC005,0.15,VWS V14.00,2013-05-03 07:22:00,
2013-05-03 02:27:00,49.9,48.5,29.96,North,355,3.0,3.0,95,0.00,,OVC005,0.15,VWS V14.00,2013-05-03 07:27:00,
2013-05-03 02:30:00,49.9,48.5,29.97,North,355,1.0,5.0,95,0.02,,OVC003,0.15,VWS V14.00,2013-05-03 07:30:00,
2013-05-03 02:32:00,49.9,48.5,29.96,North,355,1.0,5.0,95,0.00,,OVC005,0.15,VWS V14.00,2013-05-03 07:32:00,
2013-05-03 02:37:00,49.9,48.5,29.96,North,355,0.0,5.0,95,0.00,,OVC005,0.15,VWS V14.00,2013-05-03 07:37:00,
2013-05-03 02:42:00,49.9,48.5,29.96,North,355,3.0,5.0,95,0.01,,,0.16,VWS V14.00,2013-05-03 07:42:00,
2013-05-03 02:47:00,49.9,48.5,29.96,North,355,1.0,5.0,95,0.01,,,0.16,VWS V14.00,2013-05-03 07:47:00,
2013-05-03 02:52:00,49.9,48.5,29.95,North,5,0.0,4.0,95,0.01,,,0.16,VWS V14.00,2013-05-03 07:52:00,
2013-05-03 02:57:00,49.8,48.4,29.96,North,5,0.0,4.0,95,0.01,,,0.16,VWS V14.00,2013-05-03 07:57:00,
2013-05-03 03:00:00,49.9,48.5,29.95,North,5,3.0,6.0,95,0.01,,OVC003,0.16,VWS V14.00,2013-05-03 08:00:00,
2013-05-03 03:02:00,49.9,48.5,29.95,NNE,24,2.0,5.0,95,0.01,,-RA,0.16,VWS V14.00,2013-05-03 08:02:00,
2013-05-03 03:07:00,49.8,48.4,29.95,North,360,1.0,5.0,95,0.01,,-RA,0.16,VWS V14.00,2013-05-03 08:07:00,
2013-05-03 03:12:00,49.7,48.3,29.95,North,360,2.0,5.0,95,0.01,,-RA,0.16,VWS V14.00,2013-05-03 08:12:00,
2013-05-03 03:17:00,49.7,48.3,29.95,North,360,0.0,5.0,95,0.01,,-RA,0.16,VWS V14.00,2013-05-03 08:17:00,
2013-05-03 03:22:00,49.6,48.2,29.95,North,360,2.0,2.0,95,0.01,,-RA,0.16,VWS V14.00,2013-05-03 08:22:00,
2013-05-03 03:26:00,49.7,48.3,29.95,WNW,303,4.0,5.0,95,0.01,,-RA,0.16,VWS V14.00,2013-05-03 08:26:00,
2013-05-03 03:30:00,49.6,48.2,29.95,North,360,0.0,5.0,95,0.01,,OVC003,0.16,VWS V14.00,2013-05-03 08:30:00,
2013-05-03 03:31:00,49.7,48.3,29.95,WNW,303,0.0,5.0,95,0.01,,-RA,0.16,VWS V14.00,2013-05-03 08:31:00,
2013-05-03 03:36:00,49.7,48.3,29.95,WNW,303,1.0,5.0,95,0.01,,-RA,0.16,VWS V14.00,2013-05-03 08:36:00,
2013-05-03 03:41:00,49.7,48.3,29.94,NW,304,0.0,5.0,95,0.02,,-RA,0.17,VWS V14.00,2013-05-03 08:41:00,
2013-05-03 03:46:00,49.7,48.3,29.94,NW,304,0.0,5.0,95,0.02,,-RA,0.17,VWS V14.00,2013-05-03 08:46:00,
2013-05-03 03:51:00,49.7,48.3,29.94,NW,304,2.0,2.0,95,0.01,,-RA,0.17,VWS V14.00,2013-05-03 08:51:00,
2013-05-03 03:56:00,49.7,48.3,29.94,NW,304,0.0,2.0,95,0.01,,-RA,0.17,VWS V14.00,2013-05-03 08:56:00,
2013-05-03 04:00:00,49.7,48.3,29.94,NW,304,2.0,5.0,95,0.02,,OVC003,0.17,VWS V14.00,2013-05-03 09:00:00,
2013-05-03 04:01:00,49.7,48.3,29.94,NW,304,0.0,2.0,95,0.01,,-RA,0.17,VWS V14.00,2013-05-03 09:01:00,
2013-05-03 04:06:00,49.7,48.3,29.94,NW,304,0.0,2.0,95,0.01,,-RA,0.17,VWS V14.00,2013-05-03 09:06:00,
2013-05-03 04:11:00,49.7,48.3,29.94,NW,304,2.0,3.0,95,0.01,,-RA,0.17,VWS V14.00,2013-05-03 09:11:00,
2013-05-03 04:16:00,49.6,48.2,29.94,NW,304,0.0,3.0,95,0.01,,-RA,0.17,VWS V14.00,2013-05-03 09:16:00,
2013-05-03 04:21:00,49.7,48.3,29.94,NW,304,0.0,1.0,95,0.01,,,0.17,VWS V14.00,2013-05-03 09:21:00,
2013-05-03 04:26:00,49.8,48.4,29.93,NW,304,0.0,2.0,95,0.01,,,0.17,VWS V14.00,2013-05-03 09:26:00,
2013-05-03 04:30:00,49.7,48.3,29.94,NW,304,0.0,3.0,95,0.01,,OVC003,0.17,VWS V14.00,2013-05-03 09:30:00,
2013-05-03 04:31:00,49.8,48.4,29.93,NW,304,0.0,2.0,95,0.01,,,0.17,VWS V14.00,2013-05-03 09:31:00,
2013-05-03 04:36:00,49.9,48.5,29.93,NW,304,0.0,2.0,95,0.01,,,0.17,VWS V14.00,2013-05-03 09:36:00,
2013-05-03 04:41:00,49.9,48.5,29.93,NW,304,0.0,2.0,95,0.01,,,0.17,VWS V14.00,2013-05-03 09:41:00,
2013-05-03 04:46:00,50.0,48.6,29.94,WNW,303,3.0,4.0,95,0.01,,,0.17,VWS V14.00,2013-05-03 09:46:00,
2013-05-03 04:51:00,50.1,48.7,29.94,WSW,255,5.0,5.0,95,0.00,,,0.17,VWS V14.00,2013-05-03 09:51:00,
2013-05-03 04:56:00,50.1,49.0,29.95,SW,222,2.0,6.0,96,0.00,,,0.17,VWS V14.00,2013-05-03 09:56:00,
2013-05-03 05:00:00,50.1,48.7,29.94,NNE,26,3.0,6.0,95,0.01,,OVC003,0.17,VWS V14.00,2013-05-03 10:00:00,
2013-05-03 05:01:00,50.1,48.7,29.94,WSW,256,5.0,7.0,95,0.00,,,0.17,VWS V14.00,2013-05-03 10:01:00,
2013-05-03 05:06:00,50.2,48.8,29.93,ESE,120,5.0,7.0,95,0.00,,,0.17,VWS V14.00,2013-05-03 10:06:00,
2013-05-03 05:11:00,50.2,49.1,29.92,NE,34,2.0,7.0,96,0.00,,,0.17,VWS V14.00,2013-05-03 10:11:00,
2013-05-03 05:16:00,50.1,48.7,29.93,WNW,302,0.0,7.0,95,0.00,,,0.17,VWS V14.00,2013-05-03 10:16:00,
2013-05-03 05:21:00,50.1,48.7,29.93,NW,305,3.0,3.0,95,0.00,,,0.17,VWS V14.00,2013-05-03 10:21:00,
2013-05-03 05:26:00,50.1,48.7,29.93,NNE,32,1.0,6.0,95,0.00,,,0.17,VWS V14.00,2013-05-03 10:26:00,
2013-05-03 05:30:00,50.1,48.7,29.93,WNW,302,3.0,7.0,95,0.00,,OVC003,0.17,VWS V14.00,2013-05-03 10:30:00,
2013-05-03 05:31:00,50.1,48.7,29.93,NNE,31,3.0,6.0,95,0.00,,,0.17,VWS V14.00,2013-05-03 10:31:00,
2013-05-03 05:36:00,50.1,48.7,29.93,NNE,31,0.0,6.0,95,0.00,,,0.17,VWS V14.00,2013-05-03 10:36:00,
2013-05-03 05:41:00,50.2,48.8,29.93,NNE,31,0.0,6.0,95,0.00,,-RA,0.17,VWS V14.00,2013-05-03 10:41:00,
2013-05-03 05:46:00,50.2,49.1,29.93,NNE,26,0.0,6.0,96,0.00,,-RA,0.17,VWS V14.00,2013-05-03 10:46:00,
2013-05-03 05:51:00,50.3,49.2,29.93,NNE,26,1.0,2.0,96,0.00,,-RA,0.17,VWS V14.00,2013-05-03 10:51:00,
2013-05-03 05:56:00,50.4,49.3,29.93,North,351,2.0,4.0,96,0.00,,-RA,0.17,VWS V14.00,2013-05-03 10:56:00,
2013-05-03 06:00:00,50.3,48.9,29.93,NNE,26,1.0,6.0,95,0.00,,OVC003,0.17,VWS V14.00,2013-05-03 11:00:00,
2013-05-03 06:01:00,50.4,49.3,29.93,North,351,2.0,4.0,96,0.00,,,0.17,VWS V14.00,2013-05-03 11:01:00,
2013-05-03 06:06:00,50.4,49.3,29.93,NNW,347,0.0,4.0,96,0.01,,,0.18,VWS V14.00,2013-05-03 11:06:00,
2013-05-03 06:11:00,50.2,49.1,29.93,West,270,2.0,5.0,96,0.01,,,0.18,VWS V14.00,2013-05-03 11:11:00,
2013-05-03 06:16:00,50.1,49.0,29.93,West,270,2.0,5.0,96,0.01,,,0.18,VWS V14.00,2013-05-03 11:16:00,
2013-05-03 06:21:00,50.0,48.9,29.93,West,270,1.0,2.0,96,0.02,,RA,0.19,VWS V14.00,2013-05-03 11:21:00,
2013-05-03 06:26:00,49.9,48.8,29.93,West,270,4.0,5.0,96,0.02,,RA,0.19,VWS V14.00,2013-05-03 11:26:00,
2013-05-03 06:30:00,50.0,48.9,29.93,West,270,2.0,5.0,96,0.02,,OVC003,0.19,VWS V14.00,2013-05-03 11:30:00,
2013-05-03 06:31:00,49.8,48.7,29.93,West,270,1.0,5.0,96,0.03,,RA,0.20,VWS V14.00,2013-05-03 11:31:00,
2013-05-03 06:36:00,49.8,48.7,29.93,West,270,3.0,5.0,96,0.04,,RA,0.21,VWS V14.00,2013-05-03 11:36:00,
2013-05-03 06:41:00,49.8,48.7,29.93,West,274,2.0,5.0,96,0.05,,,0.22,VWS V14.00,2013-05-03 11:41:00,
2013-05-03 06:46:00,49.8,48.7,29.93,West,274,3.0,5.0,96,0.06,,,0.23,VWS V14.00,2013-05-03 11:46:00,
2013-05-03 06:51:00,49.8,48.7,29.93,West,274,2.0,2.0,96,0.07,,,0.24,VWS V14.00,2013-05-03 11:51:00,
2013-05-03 06:56:00,49.8,48.7,29.93,West,274,1.0,3.0,96,0.09,,,0.26,VWS V14.00,2013-05-03 11:56:00,
2013-05-03 07:00:00,49.8,48.7,29.93,West,274,2.0,5.0,96,0.07,,OVC003,0.24,VWS V14.00,2013-05-03 12:00:00,
2013-05-03 07:01:00,49.8,48.7,29.93,West,274,2.0,4.0,96,0.11,,RA,0.28,VWS V14.00,2013-05-03 12:01:00,
2013-05-03 07:06:00,49.8,48.7,29.93,West,274,0.0,5.0,96,0.14,,RA,0.31,VWS V14.00,2013-05-03 12:06:00,
2013-05-03 07:11:00,49.8,48.7,29.93,West,274,3.0,5.0,96,0.14,,RA,0.31,VWS V14.00,2013-05-03 12:11:00,
2013-05-03 07:16:00,49.7,48.6,29.93,West,273,3.0,5.0,96,0.15,,RA,0.32,VWS V14.00,2013-05-03 12:16:00,
2013-05-03 07:21:00,49.6,48.5,29.93,West,273,0.0,0.0,96,0.14,,RA,0.33,VWS V14.00,2013-05-03 12:21:00,
2013-05-03 07:26:00,49.6,48.5,29.93,West,273,0.0,2.0,96,0.15,,RA,0.34,VWS V14.00,2013-05-03 12:26:00,
2013-05-03 07:30:00,49.6,48.5,29.93,West,273,0.0,5.0,96,0.16,,OVC003,0.33,VWS V14.00,2013-05-03 12:30:00,
2013-05-03 07:31:00,49.5,48.4,29.93,West,273,3.0,3.0,96,0.15,,RA,0.34,VWS V14.00,2013-05-03 12:31:00,
2013-05-03 07:36:00,49.4,48.3,29.92,West,273,1.0,3.0,96,0.16,,RA,0.35,VWS V14.00,2013-05-03 12:36:00,
2013-05-03 07:41:00,49.4,48.3,29.92,West,273,3.0,4.0,96,0.17,,RA,0.36,VWS V14.00,2013-05-03 12:41:00,
2013-05-03 07:46:00,49.4,48.3,29.92,West,273,0.0,4.0,96,0.17,,RA,0.36,VWS V14.00,2013-05-03 12:46:00,
2013-05-03 07:51:00,49.4,48.3,29.92,West,273,2.0,2.0,96,0.13,,RA,0.37,VWS V14.00,2013-05-03 12:51:00,
2013-05-03 07:56:00,49.4,48.3,29.92,West,273,0.0,2.0,96,0.13,,RA,0.37,VWS V14.00,2013-05-03 12:56:00,
2013-05-03 08:00:00,49.4,48.3,29.92,West,273,2.0,4.0,96,0.18,,OVC003,0.37,VWS V14.00,2013-05-03 13:00:00,
2013-05-03 08:01:00,49.3,48.2,29.92,West,277,0.0,2.0,96,0.13,,RA,0.37,VWS V14.00,2013-05-03 13:01:00,
2013-05-03 08:06:00,49.4,48.3,29.92,SE,143,0.0,2.0,96,0.13,,RA,0.37,VWS V14.00,2013-05-03 13:06:00,
2013-05-03 08:11:00,49.5,48.4,29.92,SE,146,0.0,2.0,96,0.13,,RA,0.37,VWS V14.00,2013-05-03 13:11:00,
2013-05-03 08:16:00,49.5,48.4,29.91,SE,146,1.0,2.0,96,0.13,,RA,0.37,VWS V14.00,2013-05-03 13:16:00,
2013-05-03 08:21:00,49.5,48.4,29.91,SE,146,1.0,1.0,96,0.04,,RA,0.37,VWS V14.00,2013-05-03 13:21:00,
2013-05-03 08:26:00,49.5,48.4,29.91,SE,146,0.0,2.0,96,0.04,,RA,0.37,VWS V14.00,2013-05-03 13:26:00,
2013-05-03 08:30:00,49.5,48.4,29.91,SE,146,1.0,2.0,96,0.13,,OVC003,0.37,VWS V14.00,2013-05-03 13:30:00,
2013-05-03 08:31:00,49.6,48.5,29.91,SE,146,0.0,2.0,96,0.04,,RA,0.37,VWS V14.00,2013-05-03 13:31:00,
2013-05-03 08:36:00,49.6,48.5,29.91,SE,146,0.0,2.0,96,0.04,,RA,0.37,VWS V14.00,2013-05-03 13:36:00,
2013-05-03 08:41:00,49.7,48.6,29.91,SE,146,0.0,2.0,96,0.04,,-RA,0.37,VWS V14.00,2013-05-03 13:41:00,
2013-05-03 08:46:00,49.8,48.7,29.91,SE,146,1.0,2.0,96,0.04,,-RA,0.37,VWS V14.00,2013-05-03 13:46:00,
2013-05-03 08:51:00,49.9,48.8,29.90,NNE,20,1.0,4.0,96,0.04,,-RA,0.37,VWS V14.00,2013-05-03 13:51:00,
2013-05-03 08:56:00,50.0,48.9,29.91,NNE,20,1.0,3.0,96,0.00,,-RA,0.37,VWS V14.00,2013-05-03 13:56:00,
2013-05-03 09:00:00,49.9,48.8,29.90,NNE,20,1.0,4.0,96,0.04,,OVC003,0.37,VWS V14.00,2013-05-03 14:00:00,
2013-05-03 09:01:00,50.0,48.9,29.90,NNE,20,0.0,3.0,96,0.00,,OVC004,0.37,VWS V14.00,2013-05-03 14:01:00,
2013-05-03 09:06:00,50.1,49.0,29.90,NNE,20,1.0,4.0,96,0.00,,OVC004,0.37,VWS V14.00,2013-05-03 14:06:00,
2013-05-03 09:11:00,50.3,49.2,29.90,NNE,20,1.0,4.0,96,0.00,,OVC004,0.37,VWS V14.00,2013-05-03 14:11:00,
2013-05-03 09:16:00,50.4,49.3,29.90,NNE,20,1.0,4.0,96,0.00,,OVC004,0.37,VWS V14.00,2013-05-03 14:16:00,
2013-05-03 09:21:00,50.6,49.5,29.89,NE,55,0.0,4.0,96,0.00,,OVC004,0.37,VWS V14.00,2013-05-03 14:21:00,
2013-05-03 09:26:00,50.7,49.6,29.89,ENE,57,0.0,1.0,96,0.00,,OVC004,0.37,VWS V14.00,2013-05-03 14:26:00,
2013-05-03 09:30:00,50.6,49.5,29.89,NE,55,0.0,4.0,96,0.00,,OVC003,0.37,VWS V14.00,2013-05-03 14:30:00,
2013-05-03 09:31:00,50.8,49.7,29.89,ENE,57,0.0,1.0,96,0.00,,OVC004,0.37,VWS V14.00,2013-05-03 14:31:00,
2013-05-03 09:36:00,51.0,49.9,29.89,ENE,57,0.0,2.0,96,0.00,,OVC004,0.37,VWS V14.00,2013-05-03 14:36:00,
2013-05-03 09:41:00,51.1,50.0,29.89,ENE,57,1.0,2.0,96,0.00,,OVC004,0.37,VWS V14.00,2013-05-03 14:41:00,
2013-05-03 09:46:00,51.3,50.2,29.89,ENE,57,0.0,2.0,96,0.00,,OVC004,0.37,VWS V14.00,2013-05-03 14:46:00,
2013-05-03 09:51:00,51.5,50.4,29.89,ENE,57,0.0,2.0,96,0.00,,OVC004,0.37,VWS V14.00,2013-05-03 14:51:00,
2013-05-03 09:56:00,51.7,50.6,29.89,ENE,57,0.0,2.0,96,0.00,,OVC004,0.37,VWS V14.00,2013-05-03 14:56:00,
2013-05-03 10:00:00,51.5,50.4,29.89,ENE,57,0.0,2.0,96,0.00,,OVC003,0.37,VWS V14.00,2013-05-03 15:00:00,
2013-05-03 10:01:00,51.8,50.7,29.89,ENE,57,0.0,2.0,96,0.00,,OVC004,0.37,VWS V14.00,2013-05-03 15:01:00,
2013-05-03 10:06:00,52.1,51.0,29.89,NE,35,3.0,4.0,96,0.00,,OVC004,0.37,VWS V14.00,2013-05-03 15:06:00,
2013-05-03 10:11:00,52.3,51.2,29.89,West,274,3.0,4.0,96,0.00,,OVC004,0.37,VWS V14.00,2013-05-03 15:11:00,
2013-05-03 10:16:00,52.4,51.3,29.89,WNW,287,4.0,4.0,96,0.00,,OVC004,0.37,VWS V14.00,2013-05-03 15:16:00,
2013-05-03 10:21:00,52.2,51.1,29.89,West,262,1.0,6.0,96,0.00,,OVC002,0.37,VWS V14.00,2013-05-03 15:21:00,
2013-05-03 10:26:00,52.4,51.3,29.89,West,262,1.0,4.0,96,0.00,,OVC002,0.37,VWS V14.00,2013-05-03 15:26:00,
2013-05-03 10:30:00,52.3,51.2,29.89,West,262,3.0,6.0,96,0.00,,OVC003,0.37,VWS V14.00,2013-05-03 15:30:00,
2013-05-03 10:31:00,52.6,51.5,29.89,West,262,2.0,4.0,96,0.00,,OVC002,0.37,VWS V14.00,2013-05-03 15:31:00,
2013-05-03 10:36:00,53.0,51.9,29.89,West,262,2.0,4.0,96,0.00,,OVC002,0.37,VWS V14.00,2013-05-03 15:36:00,
2013-05-03 10:41:00,53.5,52.4,29.89,West,281,2.0,4.0,96,0.00,,OVC002,0.37,VWS V14.00,2013-05-03 15:41:00,
2013-05-03 10:46:00,53.4,52.3,29.89,West,281,4.0,5.0,96,0.00,,OVC002,0.37,VWS V14.00,2013-05-03 15:46:00,
2013-05-03 10:51:00,52.7,51.6,29.89,West,276,4.0,7.0,96,0.00,,OVC002,0.37,VWS V14.00,2013-05-03 15:51:00,
2013-05-03 10:56:00,52.4,51.3,29.89,West,274,6.0,7.0,96,0.00,,OVC002,0.37,VWS V14.00,2013-05-03 15:56:00,
2013-05-03 11:00:00,52.7,51.6,29.89,West,276,2.0,7.0,96,0.00,,OVC003,0.37,VWS V14.00,2013-05-03 16:00:00,
2013-05-03 11:01:00,51.9,50.5,29.89,WSW,252,6.0,9.0,95,0.00,,,0.37,VWS V14.00,2013-05-03 16:01:00,
2013-05-03 11:06:00,51.4,50.0,29.89,West,273,3.0,9.0,95,0.00,,,0.37,VWS V14.00,2013-05-03 16:06:00,
2013-05-03 11:11:00,51.4,50.0,29.90,West,264,4.0,9.0,95,0.00,,,0.37,VWS V14.00,2013-05-03 16:11:00,
2013-05-03 11:16:00,51.4,50.0,29.89,WNW,288,5.0,9.0,95,0.00,,,0.37,VWS V14.00,2013-05-03 16:16:00,
2013-05-03 11:21:00,51.3,49.9,29.88,West,267,3.0,9.0,95,0.00,,OVC002,0.37,VWS V14.00,2013-05-03 16:21:00,
2013-05-03 11:26:00,51.5,50.1,29.88,NW,322,2.0,5.0,95,0.00,,OVC002,0.37,VWS V14.00,2013-05-03 16:26:00,
2013-05-03 11:30:00,51.3,49.9,29.88,West,267,1.0,9.0,95,0.00,,OVC003,0.37,VWS V14.00,2013-05-03 16:30:00,
2013-05-03 11:31:00,51.6,50.2,29.88,West,260,5.0,6.0,95,0.00,,OVC002,0.37,VWS V14.00,2013-05-03 16:31:00,
2013-05-03 11:36:00,51.6,50.2,29.88,West,271,3.0,7.0,95,0.00,,OVC002,0.37,VWS V14.00,2013-05-03 16:36:00,
2013-05-03 11:41:00,52.1,50.7,29.87,West,271,3.0,7.0,95,0.00,,,0.37,VWS V14.00,2013-05-03 16:41:00,
2013-05-03 11:45:00,52.4,51.0,29.87,West,271,4.0,7.0,95,0.00,,,0.37,VWS V14.00,2013-05-03 16:45:00,
2013-05-03 11:50:00,52.3,50.9,29.87,West,271,3.0,7.0,95,0.00,,,0.37,VWS V14.00,2013-05-03 16:50:00,
2013-05-03 11:55:00,52.3,50.9,29.87,West,263,2.0,6.0,95,0.00,,,0.37,VWS V14.00,2013-05-03 16:55:00,
2013-05-03 12:00:00,52.7,51.3,29.86,West,266,3.0,6.0,95,0.00,,OVC002,0.37,VWS V14.00,2013-05-03 17:00:00,
2013-05-03 12:05:00,53.0,51.6,29.86,WNW,302,4.0,6.0,95,0.00,,OVC002,0.37,VWS V14.00,2013-05-03 17:05:00,
2013-05-03 12:10:00,52.8,51.1,29.86,NW,311,6.0,6.0,94,0.00,,OVC002,0.37,VWS V14.00,2013-05-03 17:10:00,
2013-05-03 12:15:00,53.1,51.4,29.86,NW,311,2.0,6.0,94,0.00,,OVC002,0.37,VWS V14.00,2013-05-03 17:15:00,
2013-05-03 12:20:00,53.3,51.6,29.86,NW,309,0.0,6.0,94,0.00,,OVC002,0.37,VWS V14.00,2013-05-03 17:20:00,
2013-05-03 12:25:00,53.6,51.9,29.85,WNW,286,1.0,6.0,94,0.00,,OVC002,0.37,VWS V14.00,2013-05-03 17:25:00,
2013-05-03 12:30:00,53.8,52.1,29.85,WNW,285,3.0,6.0,94,0.00,,OVC002,0.37,VWS V14.00,2013-05-03 17:30:00,
2013-05-03 12:35:00,54.2,52.5,29.85,NE,36,3.0,6.0,94,0.00,,OVC002,0.37,VWS V14.00,2013-05-03 17:35:00,
2013-05-03 12:40:00,54.4,52.4,29.85,NE,55,4.0,6.0,93,0.00,,OVC004,0.37,VWS V14.00,2013-05-03 17:40:00,
2013-05-03 12:45:00,54.8,52.8,29.85,NE,42,3.0,7.0,93,0.00,,OVC004,0.37,VWS V14.00,2013-05-03 17:45:00,
2013-05-03 12:50:00,55.1,53.1,29.85,NW,316,4.0,7.0,93,0.00,,OVC004,0.37,VWS V14.00,2013-05-03 17:50:00,
2013-05-03 12:55:00,54.5,51.9,29.85,WNW,292,0.0,4.0,91,0.00,,OVC004,0.37,VWS V14.00,2013-05-03 17:55:00,
2013-05-03 13:00:00,54.3,52.0,29.84,WNW,291,0.0,5.0,92,0.00,,OVC004,0.37,VWS V14.00,2013-05-03 18:00:00,
2013-05-03 13:05:00,54.3,52.0,29.84,WNW,293,2.0,5.0,92,0.00,,OVC004,0.37,VWS V14.00,2013-05-03 18:05:00,
2013-05-03 13:10:00,54.4,52.1,29.84,WNW,300,3.0,5.0,92,0.00,,OVC004,0.37,VWS V14.00,2013-05-03 18:10:00,
2013-05-03 13:15:00,54.2,51.9,29.84,SW,228,0.0,5.0,92,0.00,,OVC004,0.37,VWS V14.00,2013-05-03 18:15:00,
2013-05-03 13:20:00,54.3,52.0,29.84,WSW,240,0.0,5.0,92,0.00,,OVC004,0.37,VWS V14.00,2013-05-03 18:20:00,
2013-05-03 13:25:00,54.4,52.4,29.83,NW,306,1.0,4.0,93,0.00,,OVC004,0.37,VWS V14.00,2013-05-03 18:25:00,
2013-05-03 13:30:00,54.7,52.7,29.83,NNW,343,3.0,5.0,93,0.00,,OVC004,0.37,VWS V14.00,2013-05-03 18:30:00,
2013-05-03 13:35:00,54.9,52.6,29.83,NNW,333,4.0,7.0,92,0.00,,OVC004,0.37,VWS V14.00,2013-05-03 18:35:00,
2013-05-03 13:40:00,55.1,52.8,29.83,NW,313,0.0,7.0,92,0.00,,OVC004,0.37,VWS V14.00,2013-05-03 18:40:00,
2013-05-03 13:45:00,55.2,52.6,29.83,WNW,294,3.0,7.0,91,0.00,,OVC004,0.37,VWS V14.00,2013-05-03 18:45:00,
2013-05-03 13:50:00,54.8,52.2,29.83,West,267,2.0,7.0,91,0.00,,OVC004,0.37,VWS V14.00,2013-05-03 18:50:00,
2013-05-03 13:55:00,54.8,52.5,29.82,West,267,0.0,4.0,92,0.00,,OVC004,0.37,VWS V14.00,2013-05-03 18:55:00,
2013-05-03 14:00:00,55.1,53.1,29.82,West,267,3.0,4.0,93,0.00,,BKN040,0.37,VWS V14.00,2013-05-03 19:00:00,
2013-05-03 14:05:00,55.2,52.9,29.82,West,267,0.0,4.0,92,0.00,,BKN040,0.37,VWS V14.00,2013-05-03 19:05:00,
2013-05-03 14:10:00,55.4,53.1,29.82,West,267,0.0,4.0,92,0.00,,BKN040,0.37,VWS V14.00,2013-05-03 19:10:00,
2013-05-03 14:15:00,55.3,53.0,29.82,West,271,3.0,5.0,92,0.00,,BKN040,0.37,VWS V14.00,2013-05-03 19:15:00,
2013-05-03 14:20:00,55.1,52.8,29.81,West,271,0.0,5.0,92,0.00,,BKN050,0.37,VWS V14.00,2013-05-03 19:20:00,
2013-05-03 14:25:00,55.1,52.8,29.81,West,271,0.0,3.0,92,0.00,,BKN050,0.37,VWS V14.00,2013-05-03 19:25:00,
2013-05-03 14:30:00,55.4,53.4,29.81,West,274,0.0,4.0,93,0.00,,BKN050,0.37,VWS V14.00,2013-05-03 19:30:00,
2013-05-03 14:35:00,55.9,53.9,29.80,NNW,333,2.0,4.0,93,0.00,,BKN050,0.37,VWS V14.00,2013-05-03 19:35:00,
2013-05-03 14:40:00,56.4,54.4,29.80,NNW,340,2.0,4.0,93,0.00,,BKN065,0.37,VWS V14.00,2013-05-03 19:40:00,
2013-05-03 14:45:00,56.6,54.0,29.80,NNW,340,0.0,4.0,91,0.00,,BKN065,0.37,VWS V14.00,2013-05-03 19:45:00,
2013-05-03 14:50:00,56.9,54.6,29.80,NNW,340,0.0,4.0,92,0.00,,BKN065,0.37,VWS V14.00,2013-05-03 19:50:00,
2013-05-03 14:55:00,57.0,54.4,29.80,NE,42,0.0,2.0,91,0.00,,BKN065,0.37,VWS V14.00,2013-05-03 19:55:00,
2013-05-03 15:00:00,56.9,54.3,29.80,North,350,2.0,3.0,91,0.00,,OVC045,0.37,VWS V14.00,2013-05-03 20:00:00,
2013-05-03 15:05:00,56.7,54.1,29.80,NNW,338,2.0,4.0,91,0.00,,OVC045,0.37,VWS V14.00,2013-05-03 20:05:00,
2013-05-03 15:10:00,56.6,54.0,29.79,SW,229,3.0,4.0,91,0.00,,OVC045,0.37,VWS V14.00,2013-05-03 20:10:00,
2013-05-03 15:15:00,56.6,54.3,29.79,SW,230,3.0,4.0,92,0.00,,OVC045,0.37,VWS V14.00,2013-05-03 20:15:00,
2013-05-03 15:20:00,56.8,54.5,29.78,WSW,257,3.0,5.0,92,0.00,,OVC055,0.37,VWS V14.00,2013-05-03 20:20:00,
2013-05-03 15:25:00,56.6,54.3,29.78,West,269,4.0,7.0,92,0.00,,OVC055,0.37,VWS V14.00,2013-05-03 20:25:00,
2013-05-03 15:30:00,56.2,53.9,29.78,West,273,4.0,7.0,92,0.00,,OVC055,0.37,VWS V14.00,2013-05-03 20:30:00,
2013-05-03 15:35:00,55.9,53.6,29.78,WSW,253,5.0,7.0,92,0.00,,OVC055,0.37,VWS V14.00,2013-05-03 20:35:00,
2013-05-03 15:40:00,55.7,53.7,29.79,West,267,4.0,7.0,93,0.00,, +RA,0.37,VWS V14.00,2013-05-03 20:40:00,
2013-05-03 15:45:00,55.2,53.2,29.79,West,277,7.0,8.0,93,0.01,, +RA,0.38,VWS V14.00,2013-05-03 20:45:00,
2013-05-03 15:50:00,54.5,52.2,29.78,West,265,5.0,8.0,92,0.03,, +RA,0.40,VWS V14.00,2013-05-03 20:50:00,
2013-05-03 15:55:00,54.0,52.0,29.78,WNW,285,4.0,8.0,93,0.04,, +RA,0.41,VWS V14.00,2013-05-03 20:55:00,
2013-05-03 16:00:00,53.9,52.2,29.78,WNW,286,0.0,8.0,94,0.05,,RA,0.42,VWS V14.00,2013-05-03 21:00:00,
2013-05-03 16:05:00,53.8,52.1,29.78,WNW,286,0.0,8.0,94,0.11,,RA,0.48,VWS V14.00,2013-05-03 21:05:00,
2013-05-03 16:10:00,53.7,52.0,29.77,WNW,286,0.0,8.0,94,0.17,,RA,0.54,VWS V14.00,2013-05-03 21:10:00,
2013-05-03 16:15:00,53.7,52.3,29.77,WNW,286,1.0,8.0,95,0.17,,RA,0.54,VWS V14.00,2013-05-03 21:15:00,
2013-05-03 16:20:00,53.8,52.4,29.78,WNW,286,3.0,8.0,95,0.17,,-RA,0.54,VWS V14.00,2013-05-03 21:20:00,
2013-05-03 16:25:00,53.8,52.4,29.78,WNW,286,4.0,5.0,95,0.17,,-RA,0.54,VWS V14.00,2013-05-03 21:25:00,
2013-05-03 16:30:00,53.9,52.5,29.77,West,278,4.0,6.0,95,0.17,,-RA,0.54,VWS V14.00,2013-05-03 21:30:00,
2013-05-03 16:35:00,53.9,52.5,29.77,West,271,7.0,8.0,95,0.17,,-RA,0.54,VWS V14.00,2013-05-03 21:35:00,
2013-05-03 16:40:00,53.9,52.5,29.77,WNW,290,4.0,9.0,95,0.17,,-RA,0.54,VWS V14.00,2013-05-03 21:40:00,
2013-05-03 16:45:00,53.9,52.5,29.77,West,271,5.0,9.0,95,0.17,,-RA,0.54,VWS V14.00,2013-05-03 21:45:00,
2013-05-03 16:50:00,53.5,52.1,29.77,West,273,5.0,9.0,95,0.17,,-RA,0.54,VWS V14.00,2013-05-03 21:50:00,
2013-05-03 16:55:00,53.1,51.7,29.78,West,265,7.0,9.0,95,0.13,,-RA,0.54,VWS V14.00,2013-05-03 21:55:00,
2013-05-03 17:00:00,52.9,51.5,29.78,WNW,284,3.0,9.0,95,0.13,,OVC004,0.54,VWS V14.00,2013-05-03 22:00:00,
2013-05-03 17:05:00,52.5,51.1,29.77,West,261,3.0,9.0,95,0.22,,OVC004,0.63,VWS V14.00,2013-05-03 22:05:00,
2013-05-03 17:10:00,52.3,50.9,29.78,WSW,250,3.0,9.0,95,0.22,,OVC004,0.63,VWS V14.00,2013-05-03 22:10:00,
2013-05-03 17:15:00,51.9,50.5,29.78,WSW,252,5.0,9.0,95,0.22,,OVC004,0.63,VWS V14.00,2013-05-03 22:15:00,
2013-05-03 17:20:00,51.8,50.4,29.78,WNW,282,4.0,9.0,95,0.23,,-RA,0.64,VWS V14.00,2013-05-03 22:20:00,
2013-05-03 17:25:00,51.7,50.3,29.78,West,273,5.0,7.0,95,0.10,,-RA,0.64,VWS V14.00,2013-05-03 22:25:00,
2013-05-03 17:30:00,51.5,50.1,29.78,WSW,257,6.0,9.0,95,0.11,,-RA,0.65,VWS V14.00,2013-05-03 22:30:00,
2013-05-03 17:35:00,51.2,49.8,29.78,WSW,253,4.0,10.0,95,0.12,,-RA,0.66,VWS V14.00,2013-05-03 22:35:00,
2013-05-03 17:40:00,51.1,49.7,29.78,West,279,5.0,10.0,95,0.12,,RA,0.66,VWS V14.00,2013-05-03 22:40:00,
2013-05-03 17:45:00,50.8,49.4,29.78,WSW,240,8.0,13.0,95,0.16,,RA,0.70,VWS V14.00,2013-05-03 22:45:00,
2013-05-03 17:50:00,50.5,49.1,29.78,WNW,300,6.0,13.0,95,0.25,,RA,0.79,VWS V14.00,2013-05-03 22:50:00,
2013-05-03 17:55:00,50.6,49.2,29.75,West,260,6.0,10.0,95,0.33,,RA,0.87,VWS V14.00,2013-05-03 22:55:00,
2013-05-03 18:00:00,50.6,49.2,29.75,NNW,347,2.0,10.0,95,0.34,, +RA,0.88,VWS V14.00,2013-05-03 23:00:00,
2013-05-03 18:05:00,50.8,49.7,29.75,NNW,347,2.0,10.0,96,0.34,, +RA,0.88,VWS V14.00,2013-05-03 23:05:00,
2013-05-03 18:10:00,51.0,49.9,29.75,NNW,346,3.0,10.0,96,0.34,, +RA,0.88,VWS V14.00,2013-05-03 23:10:00,
2013-05-03 18:15:00,51.0,49.9,29.75,ENE,59,3.0,10.0,96,0.34,, +RA,0.88,VWS V14.00,2013-05-03 23:15:00,
2013-05-03 18:20:00,51.1,50.0,29.75,ENE,59,3.0,10.0,96,0.34,,-RA,0.88,VWS V14.00,2013-05-03 23:20:00,
2013-05-03 18:25:00,51.4,50.3,29.75,NE,54,2.0,4.0,96,0.24,,-RA,0.88,VWS V14.00,2013-05-03 23:25:00,
2013-05-03 18:30:00,51.6,50.5,29.75,ENE,69,1.0,4.0,96,0.24,,-RA,0.88,VWS V14.00,2013-05-03 23:30:00,
2013-05-03 18:35:00,51.7,50.6,29.75,ENE,69,0.0,4.0,96,0.24,,-RA,0.88,VWS V14.00,2013-05-03 23:35:00,
2013-05-03 18:40:00,51.8,50.7,29.75,ENE,69,1.0,4.0,96,0.24,,BKN046,0.88,VWS V14.00,2013-05-03 23:40:00,
2013-05-03 18:45:00,51.8,50.7,29.75,ENE,69,3.0,4.0,96,0.24,,BKN046,0.88,VWS V14.00,2013-05-03 23:45:00,
2013-05-03 18:50:00,51.8,50.7,29.78,SSW,205,4.0,15.0,96,0.24,,BKN046,0.88,VWS V14.00,2013-05-03 23:50:00,
2013-05-03 18:55:00,50.8,49.7,29.77,WSW,255,8.0,11.0,96,0.04,,BKN046,0.88,VWS V14.00,2013-05-03 23:55:00,
2013-05-03 19:00:00,50.0,48.9,29.79,West,271,4.0,12.0,96,0.04,,OVC002,0.88,VWS V14.00,2013-05-04 00:00:00,
2013-05-03 19:05:00,49.1,47.7,29.79,WSW,256,7.0,13.0,95,0.04,,OVC002,0.88,VWS V14.00,2013-05-04 00:05:00,
2013-05-03 19:10:00,48.2,46.8,29.78,WSW,241,8.0,15.0,95,0.04,,OVC002,0.88,VWS V14.00,2013-05-04 00:10:00,
2013-05-03 19:15:00,47.9,46.5,29.79,WSW,245,5.0,15.0,95,0.04,,OVC002,0.88,VWS V14.00,2013-05-04 00:15:00,
2013-05-03 19:20:00,47.6,46.2,29.80,SW,232,4.0,15.0,95,0.04,,-RA,0.88,VWS V14.00,2013-05-04 00:20:00,
2013-05-03 19:25:00,47.4,46.0,29.80,West,261,8.0,10.0,95,0.00,,-RA,0.88,VWS V14.00,2013-05-04 00:25:00,
2013-05-03 19:30:00,47.0,45.7,29.80,West,261,7.0,17.0,95,0.00,,-RA,0.88,VWS V14.00,2013-05-04 00:30:00,
2013-05-03 19:35:00,46.8,45.5,29.79,West,275,4.0,17.0,95,0.00,,-RA,0.88,VWS V14.00,2013-05-04 00:35:00,
2013-05-03 19:40:00,46.7,45.3,29.80,West,259,7.0,17.0,95,0.00,,OVC004,0.88,VWS V14.00,2013-05-04 00:40:00,
2013-05-03 19:45:00,46.5,45.2,29.80,WSW,237,6.0,17.0,95,0.00,,OVC004,0.88,VWS V14.00,2013-05-04 00:45:00,
2013-05-03 19:50:00,46.5,45.2,29.80,WSW,242,8.0,17.0,95,0.00,,OVC004,0.88,VWS V14.00,2013-05-04 00:50:00,
2013-05-03 19:55:00,46.4,45.0,29.80,WSW,241,9.0,10.0,95,0.01,,OVC004,0.89,VWS V14.00,2013-05-04 00:55:00,
2013-05-03 20:00:00,46.3,45.0,29.81,WSW,237,5.0,12.0,95,0.01,,-RA,0.89,VWS V14.00,2013-05-04 01:00:00,
2013-05-03 20:05:00,46.3,45.0,29.81,WSW,243,1.0,12.0,95,0.01,,-RA,0.89,VWS V14.00,2013-05-04 01:05:00,
2013-05-03 20:10:00,46.3,45.0,29.82,WSW,243,3.0,12.0,95,0.01,,-RA,0.89,VWS V14.00,2013-05-04 01:10:00,
2013-05-03 20:15:00,46.2,44.8,29.81,West,263,5.0,12.0,95,0.02,,-RA,0.90,VWS V14.00,2013-05-04 01:15:00,
2013-05-03 20:20:00,46.1,44.8,29.80,West,259,2.0,12.0,95,0.02,,-RA,0.90,VWS V14.00,2013-05-04 01:20:00,
2013-05-03 20:25:00,46.1,44.8,29.80,West,279,1.0,7.0,95,0.02,,-RA,0.90,VWS V14.00,2013-05-04 01:25:00,
2013-05-03 20:30:00,46.1,44.8,29.81,West,273,1.0,7.0,95,0.02,,-RA,0.90,VWS V14.00,2013-05-04 01:30:00,
2013-05-03 20:35:00,46.3,45.0,29.82,WNW,286,4.0,7.0,95,0.03,,-RA,0.91,VWS V14.00,2013-05-04 01:35:00,
2013-05-03 20:40:00,46.3,45.0,29.82,WNW,286,0.0,7.0,95,0.03,,RA,0.91,VWS V14.00,2013-05-04 01:40:00,
2013-05-03 20:45:00,46.4,45.0,29.82,WNW,286,2.0,7.0,95,0.03,,RA,0.91,VWS V14.00,2013-05-04 01:45:00,
2013-05-03 20:50:00,46.4,45.0,29.83,WNW,286,1.0,7.0,95,0.03,,RA,0.91,VWS V14.00,2013-05-04 01:50:00,
2013-05-03 20:55:00,46.4,45.0,29.82,WNW,286,3.0,5.0,95,0.03,,RA,0.91,VWS V14.00,2013-05-04 01:55:00,
2013-05-03 21:00:00,46.4,45.0,29.82,WSW,252,1.0,6.0,95,0.03,,-RA,0.91,VWS V14.00,2013-05-04 02:00:00,
2013-05-03 21:05:00,46.3,45.0,29.82,WSW,252,1.0,6.0,95,0.04,,-RA,0.92,VWS V14.00,2013-05-04 02:05:00,
2013-05-03 21:10:00,46.3,45.0,29.81,WSW,252,0.0,6.0,95,0.04,,-RA,0.92,VWS V14.00,2013-05-04 02:10:00,
2013-05-03 21:15:00,46.3,45.0,29.82,WSW,252,0.0,6.0,95,0.04,,-RA,0.92,VWS V14.00,2013-05-04 02:15:00,
2013-05-03 21:20:00,46.3,45.0,29.83,WSW,252,0.0,6.0,95,0.04,,-RA,0.92,VWS V14.00,2013-05-04 02:20:00,
2013-05-03 21:25:00,46.3,45.0,29.84,WSW,252,0.0,2.0,95,0.02,,-RA,0.92,VWS V14.00,2013-05-04 02:25:00,
2013-05-03 21:30:00,46.4,45.3,29.85,WSW,252,0.0,2.0,96,0.03,,-RA,0.93,VWS V14.00,2013-05-04 02:30:00,
2013-05-03 21:35:00,46.6,45.5,29.85,WSW,252,0.0,2.0,96,0.03,,-RA,0.93,VWS V14.00,2013-05-04 02:35:00,
2013-05-03 21:40:00,46.9,45.8,29.85,WSW,252,2.0,3.0,96,0.03,,-RA,0.93,VWS V14.00,2013-05-04 02:40:00,
2013-05-03 21:45:00,46.8,45.7,29.86,SE,125,4.0,4.0,96,0.03,,-RA,0.93,VWS V14.00,2013-05-04 02:45:00,
2013-05-03 21:50:00,46.7,45.6,29.86,SE,124,0.0,4.0,96,0.03,,-RA,0.93,VWS V14.00,2013-05-04 02:50:00,
2013-05-03 21:55:00,46.5,45.4,29.86,SE,124,1.0,4.0,96,0.03,,-RA,0.94,VWS V14.00,2013-05-04 02:55:00,
2013-05-03 22:00:00,46.3,45.2,29.85,SE,126,2.0,4.0,96,0.04,,RA,0.95,VWS V14.00,2013-05-04 03:00:00,
2013-05-03 22:05:00,46.2,45.1,29.85,SE,126,2.0,4.0,96,0.06,,RA,0.97,VWS V14.00,2013-05-04 03:05:00,
2013-05-03 22:10:00,46.0,44.9,29.85,SE,131,0.0,4.0,96,0.08,,RA,0.99,VWS V14.00,2013-05-04 03:10:00,
2013-05-03 22:15:00,45.8,44.5,29.84,SW,232,3.0,4.0,95,0.08,,RA,0.99,VWS V14.00,2013-05-04 03:15:00,
2013-05-03 22:20:00,45.7,44.3,29.84,West,263,2.0,5.0,95,0.09,,RA,1.00,VWS V14.00,2013-05-04 03:20:00,
2013-05-03 22:25:00,45.7,44.3,29.85,West,263,0.0,5.0,95,0.08,,RA,1.00,VWS V14.00,2013-05-04 03:25:00,
2013-05-03 22:30:00,45.7,44.3,29.84,West,263,0.0,5.0,95,0.08,,RA,1.00,VWS V14.00,2013-05-04 03:30:00,
2013-05-03 22:34:00,45.6,44.5,29.84,West,263,2.0,5.0,96,0.08,,RA,1.00,VWS V14.00,2013-05-04 03:34:00,
2013-05-03 22:39:00,45.6,44.5,29.85,West,263,0.0,5.0,96,0.08,,-RA,1.00,VWS V14.00,2013-05-04 03:39:00,
2013-05-03 22:45:00,45.5,44.4,29.86,West,263,2.0,5.0,96,0.08,,-RA,1.00,VWS V14.00,2013-05-04 03:45:00,
2013-05-03 22:50:00,45.4,44.3,29.87,West,263,0.0,5.0,96,0.08,,-RA,1.00,VWS V14.00,2013-05-04 03:50:00,
2013-05-03 22:55:00,45.4,44.3,29.88,West,260,1.0,3.0,96,0.07,,-RA,1.00,VWS V14.00,2013-05-04 03:55:00,
2013-05-03 23:00:00,45.3,44.2,29.89,SSW,203,2.0,3.0,96,0.07,,OVC046,1.00,VWS V14.00,2013-05-04 04:00:00,
2013-05-03 23:01:00,45.3,44.0,29.89,SSW,203,2.0,3.0,95,0.07,,OVC046,1.00,VWS V14.00,2013-05-04 04:01:00,
2013-05-03 23:06:00,45.0,43.9,29.89,South,175,2.0,5.0,96,0.07,,OVC046,1.00,VWS V14.00,2013-05-04 04:06:00,
2013-05-03 23:11:00,44.8,43.7,29.89,SW,232,1.0,5.0,96,0.07,,OVC046,1.00,VWS V14.00,2013-05-04 04:11:00,
2013-05-03 23:16:00,44.6,43.3,29.88,SW,232,1.0,5.0,95,0.07,,OVC046,1.00,VWS V14.00,2013-05-04 04:16:00,
2013-05-03 23:21:00,44.5,43.2,29.88,WSW,250,3.0,5.0,95,0.07,,,1.00,VWS V14.00,2013-05-04 04:21:00,
2013-05-03 23:26:00,44.2,42.9,29.88,WSW,249,0.0,3.0,95,0.00,,,1.00,VWS V14.00,2013-05-04 04:26:00,
2013-05-03 23:30:00,44.5,43.2,29.88,WSW,250,3.0,5.0,95,0.07,,OVC003,1.00,VWS V14.00,2013-05-04 04:30:00,
2013-05-03 23:31:00,44.2,43.1,29.88,WSW,249,2.0,3.0,96,0.00,,,1.00,VWS V14.00,2013-05-04 04:31:00,
2013-05-03 23:36:00,44.1,43.0,29.88,WSW,249,0.0,3.0,96,0.00,,,1.00,VWS V14.00,2013-05-04 04:36:00,
2013-05-03 23:41:00,44.0,42.7,29.88,WSW,238,1.0,3.0,95,0.00,,OVC020,1.00,VWS V14.00,2013-05-04 04:41:00,
2013-05-03 23:46:00,44.0,42.7,29.88,WSW,238,0.0,3.0,95,0.00,,OVC020,1.00,VWS V14.00,2013-05-04 04:46:00,
2013-05-03 23:51:00,44.0,42.7,29.87,WSW,238,0.0,3.0,95,0.00,,OVC020,1.00,VWS V14.00,2013-05-04 04:51:00,
2013-05-03 23:56:00,43.9,42.6,29.88,WSW,238,0.0,2.0,95,0.01,,OVC020,0.01,VWS V14.00,2013-05-04 04:56:00,